Orbital Elements at Epoch 2459000.5 (2020-May-31.0) TDB
Reference: JPL 16 (heliocentric ecliptic J2000)
Element | Value | Uncertainty (1-sigma) | Units |
e | .1053474557855897 | 3.4662e-08 | |
a | 2.231555641005835 | 7.3417e-09 | au |
q | 1.996466931781889 | 7.6875e-08 | au |
i | 2.647193603236583 | 3.2921e-06 | deg |
node | 120.1497415702294 | 7.9636e-05 | deg |
peri | 111.211939023209 | 8.1624e-05 | deg |
M | 7.030649970913595 | 1.6255e-05 | deg |
tp | 2458976.720485551418 (2020-May-07.22048555) | 5.5015e-05 | TDB |
period | 1217.615047955107 3.33 | 6.0089e-06 1.645e-08 | d yr |
n | .2956599465525601 | 1.4591e-09 | deg/d |
Q | 2.46664435022978 | 8.1152e-09 | au |
|
| | Orbit Determination Parameters
Additional Information
|